This demonstration page uses our WeatherBlox Daily Observations layout. Learn more.

Left ArrowRight Arrow

38.20091, -84.87328

Hourly Observations for March 5, 2022

Temp ( °F °C ) Dew Point ( °F °C ) Humidity (%) Winds ( mph kmh ) Pressure ( in mb ) Visibility ( mi km ) Precip ( " mm )
12:53 am 00:53 Clear 49 9.4 30 -1.1 48 48 E 6 9 30.17 1022 10 16 0.00 0.00
1:53 am 01:53 Clear 48 8.9 31 -0.6 52 52 E 5 7 30.16 1022 10 16 0.00 0.00
2:53 am 02:53 Clear 47 8.3 33 0.6 59 59 Calm 30.16 1021 10 16 0.00 0.00
3:53 am 03:53 Clear 47 8.3 33 0.6 59 59 Calm 30.14 1021 10 16 0.00 0.00
4:53 am 04:53 Clear 48 8.9 34 1.1 58 58 ESE 3 6 30.12 1020 10 16 0.00 0.00
5:53 am 05:53 Clear 47 8.3 36 2.2 66 66 Calm 30.16 1021 10 16 0.00 0.00
6:53 am 06:53 Clear 49 9.4 35 1.7 59 59 Calm 30.16 1021 10 16 0.00 0.00
7:53 am 07:53 Sunny 50 10 39 3.9 66 66 SSE 6 9 30.16 1022 10 16 0.00 0.00
8:53 am 08:53 Sunny 61 16.1 43 6.1 52 52 S 8 13 30.17 1022 10 16 0.00 0.00
9:53 am 09:53 Sunny 69 20.6 44 6.7 41 41 SSW 17 28 30.16 1021 10 16 0.00 0.00
10:53 am 10:53 Sunny 72 22.2 42 5.6 34 34 S 18 30 30.14 1021 10 16 0.00 0.00
11:53 am 11:53 Sunny 75 23.9 39 3.9 27 27 SSW 25 41 30.12 1020 10 16 0.00 0.00
12:53 pm 12:53 Sunny 75 23.9 40 4.4 28 28 S 22 35 30.10 1019 10 16 0.00 0.00
1:53 pm 13:53 Sunny 76 24.4 36 2.2 23 23 SSW 21 33 30.08 1019 10 16 0.00 0.00
2:53 pm 14:53 Sunny 76 24.4 41 5 29 29 SW 26 43 30.06 1018 10 16 0.00 0.00
3:53 pm 15:53 Mostly Sunny 72 22.2 47 8.3 41 41 SW 22 35 30.06 1018 10 16 0.00 0.00
4:53 pm 16:53 Partly Cloudy 73 22.8 48 8.9 41 41 SSW 16 26 30.05 1018 10 16 0.00 0.00
5:53 pm 17:53 Cloudy 72 22.2 48 8.9 43 43 SSW 15 24 30.04 1017 10 16 0.00 0.00
6:53 pm 18:53 Cloudy 71 21.7 48 8.9 44 44 S 15 24 30.03 1017 10 16 0.00 0.00
7:53 pm 19:53 Mostly Cloudy 70 21.1 49 9.4 47 47 SSW 10 17 30.03 1017 10 16 0.00 0.00
8:53 pm 20:53 Mostly Cloudy 69 20.6 49 9.4 49 49 S 13 20 30.02 1017 10 16 0.00 0.00
9:53 pm 21:53 Cloudy 70 21.1 49 9.4 47 47 S 10 17 30.01 1016 10 16 0.00 0.00
10:53 pm 22:53 Cloudy 71 21.7 48 8.9 44 44 S 15 24 30.01 1016 10 16 0.00 0.00
11:53 pm 23:53 Cloudy 71 21.7 48 8.9 44 44 SSW 15 24 29.99 1016 10 16 0.00 0.00

Powered by AerisWeather